This is the latest recevied weather packets stored in our database for station/object KA6AKH-WX. If no packets are shown the sender has not sent any weather packets the latest 10 day(s).
| Time | Temp. | Humidity | Pressure | Rain* | Wind** | Luminosity | Snow |
|---|---|---|---|---|---|---|---|
| 1788313623 | 29.44° C | 72% | 1014.9 hPa | 0 mm | - | - | - |
| 1788312423 | 30° C | 70% | 1014.9 hPa | 0 mm | - | - | - |
| 1788311823 | 30° C | 69% | 1014.9 hPa | 0 mm | - | - | - |
| 1788310633 | 30° C | 68% | 1014.5 hPa | 0 mm | - | - | - |
| 1788310022 | 30.56° C | 67% | 1014.4 hPa | 0 mm | - | - | - |
| 1788309422 | 30.56° C | 66% | 1014.1 hPa | 0 mm | - | - | - |
| 1788308822 | 31.11° C | 64% | 1013.9 hPa | 0 mm | - | - | - |
| 1788308222 | 32.22° C | 63% | 1013.7 hPa | 0 mm | - | - | - |
| 1788307628 | 32.22° C | 62% | 1012 hPa | 0 mm | - | - | - |
| 1788307022 | 31.67° C | 60% | 1013.6 hPa | 0 mm | - | - | - |
| 1788306422 | 31.67° C | 59% | 1013.5 hPa | 0 mm | - | - | - |
| 1788305822 | 32.22° C | 58% | 1013.5 hPa | 0 mm | - | - | - |
| 1788304621 | 32.78° C | 56% | 1013.9 hPa | 0 mm | - | - | - |
| 1788304021 | 32.78° C | 55% | 1013.9 hPa | 0 mm | - | - | - |
| 1788303422 | 32.78° C | 54% | 1013.9 hPa | 0 mm | - | - | - |
| 1788302821 | 33.33° C | 53% | 1013.8 hPa | 0 mm | - | - | - |
| 1788301621 | 33.33° C | 52% | 1014 hPa | 0 mm | - | - | - |
| 1788301022 | 33.89° C | 52% | 1014.1 hPa | 0 mm | - | - | - |
| 1788300421 | 33.89° C | 52% | 1014.1 hPa | 0 mm | - | - | - |
| 1788298622 | 34.44° C | 47% | 1014.1 hPa | 0 mm | - | - | - |
| 1788295561 | 35.56° C | 44% | 1014.2 hPa | 0 mm | - | - | - |
| 1788294362 | 34.44° C | 47% | 1014.5 hPa | 0 mm | - | - | - |
| 1788293131 | 36.11° C | 44% | 1014.8 hPa | 0 mm | - | - | - |
| 1788291901 | 36.11° C | 46% | 1014.8 hPa | 0 mm | - | - | - |
| 1788290701 | 35° C | 46% | 1015.1 hPa | 0 mm | - | - | - |
* Rain latest hour (hover to see other rain measurements)
** Current wind speed in m/s (hover to see current wind gust speed)